Location: Lecco
(45.8566°N, 9.3977°E)
Time: 11:40:53
(UTC+02:00)

Vanguard 2 Rocket - Pass Details

Date: 14 August 2020
Orbit: 554 x 3326 km, 32.9° (Epoch: 24 September)

Event Time Altitude Azimuth Distance (km) Brightness Sun altitude
Rises 21:12:53 0° 257° (WSW) 3,794 10.9 -7.3°
Reaches altitude 10° 21:15:24 10° 247° (WSW) 3,125 10.2 -7.7°
Maximum altitude 21:22:24 33° 186° (S) 2,544 9.0 -8.8°
Enters shadow 21:33:05 11° 131° (SE) 4,919 10.0 -10.3°
Drops below altitude 10° 21:33:35 10° 131° (SE) 5,052 - -10.4°
Sets 21:38:59 0° 123° (ESE) 6,500 - -11.2°
